����24�N�x�@��C��������Ԃɂ�鑪�茋��,,,,,,,,,,,,,,
,,,,,,,,,,,,,,
�P�@����n�_,,,,,,,,,,,,,,
���ˎs�����i���ˎs������106�j,,,,,,,,,,,,,,
,,,,,,,,,,,,,,
�Q�@���Ԓl�i�m��l�j������24�N11��13���`����24�N12��5��,,,,,,,,,,,,,,
,,,,,,,,,,,,,,
,�N,��,��,��,SO2,SPM,Ox,CO,NO,NO2,���x,���x,����,����
,,,,,ppm,mg/m3,ppm,ppm,ppm,ppm,��,%,�P�U����,m/s
H02,2012,11,13,1,***,0.029 ,0.008 ,***,***,***,7.1 ,89.7 ,CALM,0.0 
H02,2012,11,13,2,0.000 ,0.029 ,0.006 ,0.3 ,0.002 ,0.011 ,7.2 ,88.8 ,CALM,0.0 
H02,2012,11,13,3,0.000 ,0.030 ,0.004 ,0.3 ,0.009 ,0.011 ,7.2 ,89.3 ,CALM,0.1 
H02,2012,11,13,4,0.000 ,0.028 ,0.005 ,0.3 ,0.003 ,0.012 ,7.3 ,89.9 ,CALM,0.1 
H02,2012,11,13,5,0.000 ,0.031 ,0.003 ,0.3 ,0.014 ,0.015 ,7.6 ,88.1 ,W,0.4 
H02,2012,11,13,6,0.001 ,0.030 ,0.002 ,0.4 ,0.056 ,0.014 ,7.0 ,89.9 ,CALM,0.1 
H02,2012,11,13,7,0.001 ,0.036 ,0.001 ,0.5 ,0.064 ,0.008 ,7.3 ,89.1 ,WSW,0.3 
H02,2012,11,13,8,0.001 ,0.051 ,0.002 ,0.7 ,0.106 ,0.008 ,9.8 ,86.1 ,CALM,0.1 
H02,2012,11,13,9,0.002 ,0.028 ,0.007 ,0.6 ,0.067 ,0.010 ,12.3 ,69.7 ,W,0.4 
H02,2012,11,13,10,0.002 ,0.035 ,0.008 ,0.6 ,0.049 ,0.020 ,14.1 ,62.8 ,WNW,0.5 
H02,2012,11,13,11,0.002 ,0.037 ,0.018 ,0.5 ,0.030 ,0.022 ,15.8 ,51.5 ,W,0.5 
H02,2012,11,13,12,0.002 ,0.051 ,0.025 ,0.4 ,0.014 ,0.025 ,15.9 ,57.9 ,S,0.3 
H02,2012,11,13,13,0.004 ,0.033 ,0.029 ,0.5 ,0.012 ,0.022 ,17.4 ,49.4 ,WSW,0.7 
H02,2012,11,13,14,0.004 ,0.044 ,0.031 ,0.4 ,0.012 ,0.022 ,17.9 ,44.1 ,W,1.3 
H02,2012,11,13,15,0.003 ,0.032 ,0.032 ,0.3 ,0.007 ,0.021 ,17.9 ,46.1 ,S,0.8 
H02,2012,11,13,16,0.005 ,0.041 ,0.027 ,0.5 ,0.007 ,0.023 ,16.4 ,58.8 ,SSE,0.4 
H02,2012,11,13,17,0.003 ,0.046 ,0.017 ,0.4 ,0.004 ,0.026 ,14.7 ,75.0 ,CALM,0.1 
H02,2012,11,13,18,0.002 ,0.051 ,0.006 ,0.5 ,0.011 ,0.033 ,15.2 ,71.1 ,W,1.0 
H02,2012,11,13,19,0.001 ,0.028 ,0.030 ,0.3 ,0.002 ,0.015 ,14.3 ,74.7 ,W,1.3 
H02,2012,11,13,20,0.001 ,0.031 ,0.027 ,0.3 ,0.002 ,0.014 ,12.8 ,88.7 ,ENE,0.5 
H02,2012,11,13,21,0.000 ,0.026 ,0.019 ,0.3 ,0.001 ,0.013 ,11.9 ,91.9 ,ESE,0.5 
H02,2012,11,13,22,0.000 ,0.018 ,0.019 ,0.3 ,0.002 ,0.013 ,11.3 ,93.3 ,SSE,0.5 
H02,2012,11,13,23,0.000 ,0.016 ,0.017 ,0.3 ,0.001 ,0.012 ,11.6 ,90.7 ,NNW,0.5 
H02,2012,11,13,24,0.000 ,0.020 ,0.018 ,0.3 ,0.001 ,0.011 ,11.1 ,85.8 ,ENE,1.2 
H02,2012,11,14,1,0.001 ,0.017 ,0.021 ,0.3 ,0.001 ,0.009 ,9.5 ,91.8 ,CALM,0.2 
H02,2012,11,14,2,0.000 ,0.018 ,0.012 ,0.2 ,0.001 ,0.007 ,8.7 ,91.8 ,CALM,0.2 
H02,2012,11,14,3,0.000 ,0.016 ,0.007 ,0.2 ,0.001 ,0.008 ,7.8 ,93.6 ,CALM,0.0 
H02,2012,11,14,4,0.000 ,0.016 ,0.007 ,0.2 ,0.002 ,0.010 ,7.5 ,92.6 ,CALM,0.0 
H02,2012,11,14,5,0.000 ,0.018 ,0.007 ,0.3 ,0.010 ,0.012 ,7.5 ,91.8 ,SW,0.3 
H02,2012,11,14,6,0.000 ,0.018 ,0.004 ,0.3 ,0.012 ,0.014 ,7.1 ,91.4 ,CALM,0.2 
H02,2012,11,14,7,0.000 ,0.017 ,0.002 ,0.3 ,0.012 ,0.015 ,8.1 ,91.6 ,SW,0.3 
H02,2012,11,14,8,0.001 ,0.011 ,0.002 ,0.5 ,0.052 ,0.014 ,9.2 ,90.0 ,S,0.3 
H02,2012,11,14,9,0.003 ,0.026 ,0.011 ,0.5 ,0.057 ,0.014 ,12.2 ,67.9 ,WNW,0.7 
H02,2012,11,14,10,0.004 ,0.033 ,0.022 ,0.3 ,0.022 ,0.017 ,13.7 ,55.9 ,NW,1.5 
H02,2012,11,14,11,0.003 ,0.031 ,0.026 ,0.3 ,0.013 ,0.018 ,13.8 ,51.6 ,WNW,1.5 
H02,2012,11,14,12,0.002 ,0.025 ,0.028 ,0.3 ,0.010 ,0.017 ,14.3 ,47.9 ,NW,1.4 
H02,2012,11,14,13,0.002 ,0.022 ,0.033 ,0.2 ,0.005 ,0.013 ,14.3 ,46.1 ,WNW,2.6 
H02,2012,11,14,14,0.001 ,0.022 ,0.032 ,0.2 ,0.010 ,0.013 ,14.0 ,47.4 ,NW,2.5 
H02,2012,11,14,15,0.001 ,0.018 ,0.032 ,0.2 ,0.013 ,0.015 ,12.9 ,52.7 ,NNW,1.8 
H02,2012,11,14,16,0.001 ,0.010 ,0.034 ,0.2 ,0.009 ,0.013 ,12.1 ,48.7 ,NNW,1.5 
H02,2012,11,14,17,0.001 ,0.020 ,0.033 ,0.2 ,0.010 ,0.014 ,11.1 ,54.9 ,NNW,1.1 
H02,2012,11,14,18,0.000 ,0.007 ,0.033 ,0.4 ,0.004 ,0.011 ,10.1 ,62.3 ,NNW,0.7 
H02,2012,11,14,19,0.000 ,0.009 ,0.031 ,0.3 ,0.003 ,0.010 ,8.9 ,65.6 ,N,0.3 
H02,2012,11,14,20,0.001 ,0.014 ,0.025 ,0.3 ,0.005 ,0.014 ,9.7 ,61.6 ,N,0.6 
H02,2012,11,14,21,0.001 ,0.012 ,0.026 ,0.3 ,0.001 ,0.012 ,9.6 ,67.2 ,WNW,1.0 
H02,2012,11,14,22,0.000 ,0.009 ,0.025 ,0.3 ,0.001 ,0.012 ,8.6 ,75.0 ,NNW,0.6 
H02,2012,11,14,23,0.000 ,0.007 ,0.022 ,0.3 ,0.001 ,0.012 ,7.9 ,82.8 ,NNW,0.6 
H02,2012,11,14,24,0.000 ,0.009 ,0.022 ,0.3 ,0.001 ,0.009 ,7.4 ,84.3 ,NNW,0.6 
H02,2012,11,15,1,0.000 ,0.007 ,0.018 ,0.2 ,0.001 ,0.008 ,6.8 ,86.1 ,NW,0.3 
H02,2012,11,15,2,0.000 ,0.008 ,0.011 ,0.2 ,0.000 ,0.007 ,5.6 ,87.3 ,CALM,0.2 
H02,2012,11,15,3,0.000 ,0.012 ,0.003 ,0.2 ,0.002 ,0.009 ,5.0 ,87.9 ,CALM,0.1 
H02,2012,11,15,4,0.000 ,0.009 ,0.004 ,0.3 ,0.003 ,0.010 ,5.5 ,89.0 ,SE,0.4 
H02,2012,11,15,5,0.000 ,0.009 ,0.005 ,0.2 ,0.005 ,0.010 ,6.1 ,89.6 ,CALM,0.2 
H02,2012,11,15,6,0.000 ,0.006 ,0.006 ,0.3 ,0.010 ,0.013 ,7.4 ,89.4 ,NNW,0.3 
H02,2012,11,15,7,0.000 ,0.011 ,0.013 ,0.3 ,0.009 ,0.016 ,7.4 ,91.5 ,NNW,0.7 
H02,2012,11,15,8,0.000 ,0.011 ,0.011 ,0.4 ,0.014 ,0.020 ,7.5 ,92.6 ,NW,0.6 
H02,2012,11,15,9,0.000 ,0.005 ,0.017 ,0.4 ,0.016 ,0.018 ,8.0 ,88.4 ,NNW,0.8 
H02,2012,11,15,10,0.000 ,0.006 ,0.022 ,0.4 ,0.019 ,0.016 ,9.0 ,87.4 ,NE,1.1 
H02,2012,11,15,11,0.000 ,0.005 ,0.022 ,0.3 ,0.015 ,0.015 ,9.2 ,85.1 ,NW,1.2 
H02,2012,11,15,12,0.000 ,0.012 ,0.020 ,0.4 ,0.012 ,0.017 ,9.9 ,83.1 ,NNW,1.6 
H02,2012,11,15,13,0.001 ,0.016 ,0.023 ,0.3 ,0.011 ,0.016 ,9.9 ,76.8 ,NNW,1.5 
H02,2012,11,15,14,0.000 ,0.009 ,0.026 ,0.3 ,0.008 ,0.011 ,11.0 ,72.5 ,NNW,1.3 
H02,2012,11,15,15,0.000 ,0.011 ,0.026 ,0.3 ,0.009 ,0.010 ,11.3 ,66.0 ,NW,2.7 
H02,2012,11,15,16,0.000 ,0.015 ,0.025 ,0.3 ,0.005 ,0.011 ,10.8 ,66.3 ,NW,2.6 
H02,2012,11,15,17,0.001 ,0.017 ,0.017 ,0.4 ,0.009 ,0.022 ,9.4 ,71.7 ,NNW,1.7 
H02,2012,11,15,18,0.001 ,0.012 ,0.009 ,0.5 ,0.012 ,0.027 ,8.7 ,75.6 ,NNW,0.8 
H02,2012,11,15,19,0.000 ,0.012 ,0.004 ,0.5 ,0.008 ,0.029 ,7.3 ,84.0 ,WSW,0.4 
H02,2012,11,15,20,0.000 ,0.015 ,0.002 ,0.6 ,0.012 ,0.023 ,6.6 ,86.3 ,CALM,0.1 
H02,2012,11,15,21,0.000 ,0.011 ,0.001 ,0.5 ,0.010 ,0.018 ,5.5 ,88.6 ,CALM,0.0 
H02,2012,11,15,22,0.000 ,0.021 ,0.002 ,0.6 ,0.012 ,0.016 ,5.6 ,88.5 ,CALM,0.2 
H02,2012,11,15,23,0.000 ,0.006 ,0.007 ,0.4 ,0.005 ,0.013 ,6.2 ,84.4 ,NNW,0.7 
H02,2012,11,15,24,0.000 ,0.005 ,0.010 ,0.3 ,0.002 ,0.014 ,7.1 ,77.7 ,NE,2.0 
H02,2012,11,16,1,0.001 ,0.010 ,0.008 ,0.3 ,0.001 ,0.015 ,6.6 ,80.5 ,NNE,2.4 
H02,2012,11,16,2,0.001 ,0.017 ,0.010 ,0.3 ,0.001 ,0.014 ,6.9 ,77.3 ,NNE,2.1 
H02,2012,11,16,3,0.001 ,0.007 ,0.011 ,0.3 ,0.001 ,0.012 ,6.0 ,82.5 ,WNW,0.4 
H02,2012,11,16,4,0.000 ,0.014 ,0.006 ,0.3 ,0.008 ,0.016 ,5.9 ,81.0 ,NW,1.0 
H02,2012,11,16,5,0.001 ,0.016 ,0.004 ,0.3 ,0.030 ,0.019 ,5.6 ,82.6 ,CALM,0.2 
H02,2012,11,16,6,0.000 ,0.015 ,0.002 ,0.3 ,0.026 ,0.010 ,4.4 ,87.7 ,CALM,0.2 
H02,2012,11,16,7,0.000 ,0.020 ,0.002 ,0.4 ,0.033 ,0.012 ,4.7 ,89.5 ,CALM,0.2 
H02,2012,11,16,8,0.001 ,0.013 ,0.005 ,0.6 ,0.073 ,0.010 ,8.4 ,73.4 ,N,0.8 
H02,2012,11,16,9,0.002 ,0.013 ,0.012 ,0.4 ,0.037 ,0.012 ,10.9 ,61.3 ,NNE,1.7 
H02,2012,11,16,10,0.002 ,0.019 ,0.017 ,0.3 ,0.035 ,0.014 ,12.6 ,53.8 ,NE,2.5 
H02,2012,11,16,11,0.001 ,0.025 ,0.025 ,0.2 ,0.016 ,0.010 ,14.5 ,49.5 ,NNE,2.1 
H02,2012,11,16,12,0.002 ,0.020 ,0.025 ,0.2 ,0.020 ,0.012 ,15.4 ,47.8 ,NNW,1.4 
H02,2012,11,16,13,0.001 ,0.016 ,0.028 ,0.2 ,0.006 ,0.009 ,16.4 ,41.0 ,NW,0.9 
H02,2012,11,16,14,0.001 ,0.017 ,0.030 ,0.2 ,0.007 ,0.010 ,17.3 ,41.1 ,SSW,0.8 
H02,2012,11,16,15,0.001 ,0.019 ,0.033 ,0.2 ,0.007 ,0.010 ,17.3 ,36.7 ,SSW,0.9 
H02,2012,11,16,16,0.002 ,0.029 ,0.030 ,0.3 ,0.012 ,0.016 ,15.3 ,46.5 ,SW,0.6 
H02,2012,11,16,17,0.001 ,0.030 ,0.016 ,0.3 ,0.005 ,0.026 ,11.6 ,71.1 ,CALM,0.1 
H02,2012,11,16,18,0.001 ,0.037 ,0.003 ,0.4 ,0.014 ,0.029 ,9.9 ,73.6 ,S,0.3 
H02,2012,11,16,19,0.000 ,0.038 ,0.003 ,0.5 ,0.014 ,0.026 ,8.9 ,77.9 ,S,0.3 
H02,2012,11,16,20,0.000 ,0.017 ,0.003 ,0.5 ,0.009 ,0.021 ,8.1 ,83.6 ,CALM,0.2 
H02,2012,11,16,21,0.000 ,0.011 ,0.005 ,0.4 ,0.004 ,0.020 ,8.2 ,84.4 ,SE,0.3 
H02,2012,11,16,22,0.000 ,0.006 ,0.016 ,0.4 ,0.001 ,0.014 ,8.7 ,78.3 ,ESE,0.5 
H02,2012,11,16,23,0.000 ,0.009 ,0.016 ,0.3 ,0.001 ,0.011 ,8.3 ,79.9 ,CALM,0.2 
H02,2012,11,16,24,0.000 ,0.010 ,0.015 ,0.2 ,0.000 ,0.007 ,7.5 ,83.4 ,CALM,0.1 
H02,2012,11,17,1,0.000 ,0.005 ,0.017 ,0.2 ,0.001 ,0.007 ,8.5 ,81.4 ,SE,0.3 
H02,2012,11,17,2,0.000 ,0.005 ,0.014 ,0.3 ,0.001 ,0.010 ,9.3 ,82.6 ,CALM,0.2 
H02,2012,11,17,3,0.000 ,0.015 ,0.010 ,0.3 ,0.001 ,0.011 ,10.5 ,76.3 ,WSW,0.9 
H02,2012,11,17,4,0.000 ,0.015 ,0.009 ,0.3 ,0.002 ,0.013 ,10.1 ,79.3 ,CALM,0.1 
H02,2012,11,17,5,0.001 ,0.011 ,0.003 ,0.3 ,0.014 ,0.023 ,10.2 ,79.5 ,ESE,0.3 
H02,2012,11,17,6,0.000 ,0.015 ,0.002 ,0.3 ,0.016 ,0.017 ,10.5 ,82.3 ,SE,0.3 
H02,2012,11,17,7,0.000 ,0.017 ,0.023 ,0.2 ,0.005 ,0.010 ,11.0 ,88.8 ,NW,1.0 
H02,2012,11,17,8,0.001 ,0.019 ,0.002 ,0.4 ,0.020 ,0.023 ,10.1 ,91.9 ,NW,0.8 
H02,2012,11,17,9,0.001 ,0.026 ,0.002 ,0.4 ,0.040 ,0.020 ,10.1 ,93.5 ,CALM,0.1 
H02,2012,11,17,10,0.001 ,0.026 ,0.003 ,0.5 ,0.051 ,0.019 ,10.7 ,95.7 ,WNW,0.8 
H02,2012,11,17,11,0.001 ,0.028 ,0.003 ,0.5 ,0.057 ,0.018 ,11.3 ,94.2 ,WNW,0.7 
H02,2012,11,17,12,0.001 ,0.027 ,0.003 ,0.6 ,0.054 ,0.017 ,11.3 ,93.6 ,ENE,0.9 
H02,2012,11,17,13,0.001 ,0.019 ,0.004 ,0.6 ,0.058 ,0.016 ,14.0 ,92.8 ,SSE,0.8 
H02,2012,11,17,14,0.000 ,0.014 ,0.032 ,0.2 ,0.009 ,0.006 ,16.0 ,92.9 ,S,0.7 
H02,2012,11,17,15,0.000 ,0.024 ,0.035 ,0.2 ,0.004 ,0.008 ,17.1 ,92.0 ,SSE,0.8 
H02,2012,11,17,16,0.000 ,0.016 ,0.019 ,0.4 ,0.010 ,0.019 ,13.5 ,92.2 ,WNW,2.4 
H02,2012,11,17,17,0.000 ,0.012 ,0.008 ,0.4 ,0.008 ,0.025 ,14.0 ,94.2 ,NNW,0.5 
H02,2012,11,17,18,0.000 ,0.014 ,0.016 ,0.4 ,0.005 ,0.020 ,14.0 ,90.6 ,NNE,1.4 
H02,2012,11,17,19,0.000 ,0.004 ,0.024 ,0.3 ,0.002 ,0.012 ,13.7 ,92.4 ,NW,1.0 
H02,2012,11,17,20,0.000 ,0.006 ,0.017 ,0.4 ,0.001 ,0.016 ,13.2 ,93.4 ,NW,0.6 
H02,2012,11,17,21,0.000 ,0.012 ,0.011 ,0.4 ,0.001 ,0.018 ,12.0 ,94.1 ,WSW,0.5 
H02,2012,11,17,22,0.000 ,0.013 ,0.009 ,0.4 ,0.001 ,0.016 ,12.3 ,94.5 ,W,0.4 
H02,2012,11,17,23,0.000 ,0.010 ,0.017 ,0.4 ,0.003 ,0.013 ,12.0 ,93.0 ,NW,0.7 
H02,2012,11,17,24,0.001 ,0.015 ,0.031 ,0.3 ,0.001 ,0.007 ,12.6 ,84.1 ,NW,1.6 
H02,2012,11,18,1,0.001 ,0.013 ,0.033 ,0.4 ,0.000 ,0.005 ,13.2 ,74.1 ,NNE,1.9 
H02,2012,11,18,2,0.001 ,0.017 ,0.037 ,0.3 ,0.000 ,0.003 ,12.8 ,71.9 ,NNW,0.7 
H02,2012,11,18,3,0.001 ,0.016 ,0.038 ,0.3 ,0.000 ,0.002 ,12.9 ,67.2 ,NNW,2.1 
H02,2012,11,18,4,0.001 ,0.010 ,0.036 ,0.3 ,0.000 ,0.003 ,11.6 ,74.6 ,NNW,0.5 
H02,2012,11,18,5,0.001 ,0.020 ,0.030 ,0.3 ,0.001 ,0.004 ,12.3 ,71.9 ,NE,2.9 
H02,2012,11,18,6,0.001 ,0.016 ,0.034 ,0.3 ,0.000 ,0.003 ,11.9 ,71.5 ,N,0.9 
H02,2012,11,18,7,0.001 ,0.016 ,0.031 ,0.3 ,0.000 ,0.005 ,11.6 ,72.0 ,WNW,0.9 
H02,2012,11,18,8,0.001 ,0.019 ,0.025 ,0.4 ,0.002 ,0.010 ,14.0 ,59.4 ,NW,1.8 
H02,2012,11,18,9,0.001 ,0.018 ,0.034 ,0.3 ,0.001 ,0.004 ,14.1 ,57.1 ,N,1.4 
H02,2012,11,18,10,0.001 ,0.017 ,0.037 ,0.3 ,0.001 ,0.003 ,15.3 ,52.6 ,N,1.6 
H02,2012,11,18,11,0.001 ,0.009 ,0.039 ,0.3 ,0.001 ,0.002 ,15.7 ,47.7 ,NNW,2.3 
H02,2012,11,18,12,0.001 ,0.009 ,0.040 ,0.3 ,0.001 ,0.002 ,16.1 ,45.2 ,NW,3.8 
H02,2012,11,18,13,0.001 ,0.018 ,0.040 ,0.3 ,0.001 ,0.002 ,16.2 ,44.5 ,NW,4.1 
H02,2012,11,18,14,0.001 ,0.011 ,0.039 ,0.3 ,0.001 ,0.002 ,16.1 ,44.2 ,NNW,2.1 
H02,2012,11,18,15,0.001 ,0.010 ,0.037 ,0.3 ,0.001 ,0.002 ,15.7 ,45.8 ,NNE,3.5 
H02,2012,11,18,16,0.001 ,0.012 ,0.035 ,0.3 ,0.001 ,0.002 ,14.4 ,42.8 ,NNE,3.8 
H02,2012,11,18,17,0.001 ,0.014 ,0.033 ,0.3 ,0.001 ,0.003 ,13.0 ,48.2 ,NNE,2.5 
H02,2012,11,18,18,0.000 ,0.014 ,0.032 ,0.3 ,0.001 ,0.004 ,12.1 ,46.9 ,NNE,2.6 
H02,2012,11,18,19,0.000 ,0.008 ,0.034 ,0.2 ,0.000 ,0.003 ,11.6 ,46.2 ,N,1.9 
H02,2012,11,18,20,0.001 ,0.009 ,0.033 ,0.2 ,0.000 ,0.004 ,10.6 ,49.7 ,NNE,1.6 
H02,2012,11,18,21,0.001 ,0.007 ,0.031 ,0.3 ,0.000 ,0.005 ,9.6 ,56.3 ,NNW,0.6 
H02,2012,11,18,22,0.000 ,0.011 ,0.030 ,0.3 ,0.001 ,0.005 ,9.4 ,55.2 ,N,1.3 
H02,2012,11,18,23,0.000 ,0.015 ,0.031 ,0.3 ,0.001 ,0.005 ,8.9 ,55.5 ,NNE,1.0 
H02,2012,11,18,24,0.001 ,0.014 ,0.027 ,0.3 ,0.000 ,0.007 ,7.7 ,63.7 ,NE,1.4 
H02,2012,11,19,1,***,0.014 ,0.023 ,***,***,***,7.1 ,65.8 ,NNE,1.0 
H02,2012,11,19,2,0.001 ,0.015 ,0.020 ,0.3 ,0.002 ,0.008 ,6.5 ,69.2 ,N,0.6 
H02,2012,11,19,3,0.001 ,0.014 ,0.016 ,0.3 ,0.001 ,0.009 ,6.0 ,74.5 ,N,0.3 
H02,2012,11,19,4,0.001 ,0.011 ,0.015 ,0.3 ,0.001 ,0.009 ,5.9 ,74.0 ,NE,0.4 
H02,2012,11,19,5,0.000 ,0.019 ,0.014 ,0.3 ,0.013 ,0.013 ,6.5 ,70.2 ,NW,0.6 
H02,2012,11,19,6,0.000 ,0.016 ,0.007 ,0.3 ,0.023 ,0.015 ,4.9 ,80.3 ,CALM,0.2 
H02,2012,11,19,7,0.001 ,0.016 ,0.002 ,0.4 ,0.039 ,0.012 ,6.0 ,78.1 ,ESE,0.3 
H02,2012,11,19,8,0.001 ,0.020 ,0.003 ,0.5 ,0.048 ,0.012 ,7.2 ,72.6 ,E,0.3 
H02,2012,11,19,9,0.003 ,0.019 ,0.006 ,0.5 ,0.050 ,0.010 ,8.9 ,65.0 ,E,0.9 
H02,2012,11,19,10,0.001 ,0.018 ,0.012 ,0.4 ,0.030 ,0.010 ,10.8 ,55.7 ,SSW,0.6 
H02,2012,11,19,11,0.001 ,0.019 ,0.019 ,0.3 ,0.014 ,0.011 ,12.8 ,48.1 ,WNW,0.8 
H02,2012,11,19,12,0.003 ,0.015 ,0.022 ,0.3 ,0.018 ,0.017 ,14.3 ,42.0 ,NNE,1.0 
H02,2012,11,19,13,0.002 ,0.019 ,0.032 ,0.3 ,0.008 ,0.012 ,14.8 ,38.1 ,NNE,1.0 
H02,2012,11,19,14,0.003 ,0.029 ,0.029 ,0.4 ,0.014 ,0.019 ,15.5 ,38.4 ,ENE,0.6 
H02,2012,11,19,15,0.003 ,0.036 ,0.025 ,0.4 ,0.019 ,0.027 ,16.1 ,43.8 ,ENE,0.3 
H02,2012,11,19,16,0.003 ,0.039 ,0.025 ,0.5 ,0.010 ,0.026 ,14.3 ,53.5 ,CALM,0.1 
H02,2012,11,19,17,0.002 ,0.047 ,0.013 ,0.7 ,0.007 ,0.027 ,11.6 ,72.6 ,CALM,0.2 
H02,2012,11,19,18,0.001 ,0.045 ,0.002 ,0.9 ,0.019 ,0.030 ,10.4 ,76.0 ,S,0.3 
H02,2012,11,19,19,0.001 ,0.032 ,0.002 ,0.9 ,0.019 ,0.026 ,9.0 ,81.2 ,CALM,0.2 
H02,2012,11,19,20,0.000 ,0.022 ,0.002 ,0.7 ,0.016 ,0.022 ,9.1 ,82.1 ,SE,0.5 
H02,2012,11,19,21,0.000 ,0.020 ,0.002 ,0.6 ,0.010 ,0.022 ,9.6 ,82.1 ,CALM,0.2 
H02,2012,11,19,22,0.000 ,0.014 ,0.003 ,0.6 ,0.005 ,0.019 ,9.0 ,84.8 ,CALM,0.2 
H02,2012,11,19,23,0.000 ,0.018 ,0.004 ,0.5 ,0.003 ,0.017 ,9.6 ,84.3 ,CALM,0.1 
H02,2012,11,19,24,0.000 ,0.019 ,0.003 ,0.5 ,0.004 ,0.018 ,10.2 ,86.1 ,CALM,0.2 
H02,2012,11,20,1,0.001 ,0.011 ,0.002 ,0.5 ,0.007 ,0.023 ,10.2 ,91.4 ,SE,0.5 
H02,2012,11,20,2,0.000 ,0.024 ,0.001 ,0.5 ,0.011 ,0.018 ,9.3 ,93.2 ,SSW,0.3 
H02,2012,11,20,3,0.000 ,0.022 ,0.001 ,0.4 ,0.012 ,0.014 ,9.1 ,92.6 ,CALM,0.0 
H02,2012,11,20,4,0.000 ,0.022 ,0.001 ,0.4 ,0.014 ,0.013 ,8.5 ,94.5 ,CALM,0.0 
H02,2012,11,20,5,0.000 ,0.017 ,0.001 ,0.4 ,0.024 ,0.011 ,7.8 ,92.3 ,CALM,0.0 
H02,2012,11,20,6,0.000 ,0.026 ,0.001 ,0.5 ,0.030 ,0.009 ,6.6 ,93.0 ,CALM,0.0 
H02,2012,11,20,7,0.000 ,0.021 ,0.001 ,0.5 ,0.038 ,0.010 ,6.7 ,92.3 ,CALM,0.1 
H02,2012,11,20,8,0.001 ,0.030 ,0.002 ,0.8 ,0.092 ,0.008 ,8.6 ,91.5 ,ESE,0.7 
H02,2012,11,20,9,0.002 ,0.025 ,0.007 ,0.7 ,0.057 ,0.007 ,11.9 ,79.5 ,NNW,0.6 
H02,2012,11,20,10,0.003 ,0.028 ,0.021 ,0.4 ,0.032 ,0.013 ,14.7 ,56.1 ,NNW,1.5 
H02,2012,11,20,11,0.002 ,0.015 ,0.034 ,0.3 ,0.011 ,0.009 ,16.2 ,45.6 ,NNW,2.0 
H02,2012,11,20,12,0.002 ,0.009 ,0.035 ,0.2 ,0.010 ,0.009 ,16.0 ,41.6 ,NNW,2.2 
H02,2012,11,20,13,0.001 ,0.023 ,0.036 ,0.2 ,0.006 ,0.007 ,15.4 ,43.7 ,NW,2.4 
H02,2012,11,20,14,0.002 ,0.037 ,0.032 ,0.2 ,0.014 ,0.013 ,15.2 ,44.2 ,NNW,2.5 
H02,2012,11,20,15,0.002 ,0.030 ,0.033 ,0.2 ,0.011 ,0.012 ,15.6 ,40.8 ,NW,2.6 
H02,2012,11,20,16,0.001 ,0.025 ,0.032 ,0.2 ,0.011 ,0.014 ,14.5 ,43.1 ,NNW,2.4 
H02,2012,11,20,17,0.002 ,0.027 ,0.029 ,0.3 ,0.007 ,0.015 ,13.4 ,48.5 ,NW,1.5 
H02,2012,11,20,18,0.001 ,0.025 ,0.015 ,0.4 ,0.013 ,0.027 ,12.4 ,53.6 ,NW,1.0 
H02,2012,11,20,19,0.001 ,0.020 ,0.012 ,0.5 ,0.011 ,0.026 ,10.8 ,65.7 ,N,0.5 
H02,2012,11,20,20,0.001 ,0.013 ,0.017 ,0.4 ,0.006 ,0.019 ,10.8 ,65.1 ,WNW,0.8 
H02,2012,11,20,21,0.000 ,0.020 ,0.008 ,0.4 ,0.003 ,0.020 ,8.7 ,76.6 ,CALM,0.1 
H02,2012,11,20,22,0.000 ,0.023 ,0.004 ,0.5 ,0.005 ,0.019 ,7.7 ,82.2 ,CALM,0.1 
H02,2012,11,20,23,0.000 ,0.026 ,0.002 ,0.5 ,0.005 ,0.018 ,7.5 ,83.8 ,CALM,0.2 
H02,2012,11,20,24,0.000 ,0.016 ,0.004 ,0.3 ,0.005 ,0.015 ,7.4 ,84.4 ,CALM,0.2 
H02,2012,11,21,1,0.000 ,0.014 ,0.009 ,0.3 ,0.002 ,0.011 ,7.2 ,84.5 ,SE,0.5 
H02,2012,11,21,2,0.000 ,0.012 ,0.008 ,0.3 ,0.001 ,0.010 ,7.4 ,85.1 ,CALM,0.2 
H02,2012,11,21,3,0.000 ,0.009 ,0.005 ,0.3 ,0.002 ,0.011 ,5.6 ,87.6 ,CALM,0.1 
H02,2012,11,21,4,0.000 ,0.021 ,0.004 ,0.3 ,0.002 ,0.010 ,5.6 ,87.7 ,CALM,0.1 
H02,2012,11,21,5,0.000 ,0.014 ,0.002 ,0.3 ,0.015 ,0.013 ,5.1 ,88.2 ,CALM,0.2 
H02,2012,11,21,6,0.000 ,0.010 ,0.002 ,0.3 ,0.008 ,0.013 ,4.8 ,88.1 ,CALM,0.1 
H02,2012,11,21,7,0.000 ,0.017 ,0.001 ,0.3 ,0.019 ,0.013 ,4.8 ,86.0 ,CALM,0.2 
H02,2012,11,21,8,0.001 ,0.009 ,0.014 ,0.4 ,0.038 ,0.014 ,10.1 ,56.2 ,N,1.6 
H02,2012,11,21,9,0.002 ,0.005 ,0.024 ,0.3 ,0.018 ,0.012 ,11.7 ,47.2 ,NNW,1.6 
H02,2012,11,21,10,0.002 ,0.017 ,0.029 ,0.2 ,0.013 ,0.010 ,12.8 ,38.1 ,NNE,2.9 
H02,2012,11,21,11,0.001 ,0.019 ,0.031 ,0.2 ,0.013 ,0.010 ,13.8 ,37.7 ,NNW,1.9 
H02,2012,11,21,12,0.002 ,0.022 ,0.030 ,0.2 ,0.017 ,0.013 ,14.6 ,34.8 ,N,1.2 
H02,2012,11,21,13,0.001 ,0.016 ,0.032 ,0.2 ,0.010 ,0.011 ,15.3 ,35.5 ,NNW,1.7 
H02,2012,11,21,14,0.001 ,0.026 ,0.032 ,0.2 ,0.011 ,0.012 ,15.7 ,34.0 ,NW,1.9 
H02,2012,11,21,15,0.002 ,0.040 ,0.029 ,0.2 ,0.016 ,0.018 ,15.9 ,33.1 ,NW,1.5 
H02,2012,11,21,16,0.002 ,0.031 ,0.027 ,0.2 ,0.011 ,0.018 ,14.9 ,36.7 ,WNW,1.0 
H02,2012,11,21,17,0.002 ,0.027 ,0.010 ,0.2 ,0.012 ,0.029 ,11.3 ,65.1 ,CALM,0.0 
H02,2012,11,21,18,0.001 ,0.023 ,0.003 ,0.4 ,0.015 ,0.028 ,9.8 ,66.3 ,CALM,0.2 
H02,2012,11,21,19,0.000 ,0.027 ,0.002 ,0.5 ,0.018 ,0.024 ,8.7 ,74.2 ,S,0.3 
H02,2012,11,21,20,0.001 ,0.012 ,0.002 ,0.4 ,0.010 ,0.022 ,8.7 ,72.5 ,CALM,0.2 
H02,2012,11,21,21,0.001 ,0.016 ,0.003 ,0.4 ,0.009 ,0.022 ,9.2 ,72.5 ,CALM,0.2 
H02,2012,11,21,22,0.001 ,0.020 ,0.002 ,0.4 ,0.011 ,0.020 ,9.4 ,76.3 ,SSW,0.5 
H02,2012,11,21,23,0.001 ,0.014 ,0.002 ,0.4 ,0.008 ,0.018 ,9.8 ,76.0 ,CALM,0.1 
H02,2012,11,21,24,0.001 ,0.012 ,0.002 ,0.3 ,0.007 ,0.017 ,10.1 ,75.8 ,W,0.4 
H02,2012,11,22,1,0.001 ,0.017 ,0.004 ,0.3 ,0.003 ,0.019 ,10.1 ,74.4 ,SE,0.3 
H02,2012,11,22,2,0.000 ,0.021 ,0.003 ,0.3 ,0.003 ,0.016 ,9.5 ,78.8 ,CALM,0.1 
H02,2012,11,22,3,0.000 ,0.017 ,0.002 ,0.3 ,0.004 ,0.014 ,9.5 ,79.9 ,SW,0.4 
H02,2012,11,22,4,0.000 ,0.008 ,0.002 ,0.3 ,0.007 ,0.014 ,9.2 ,80.0 ,CALM,0.2 
H02,2012,11,22,5,0.001 ,0.024 ,0.001 ,0.3 ,0.018 ,0.014 ,9.4 ,82.5 ,CALM,0.0 
H02,2012,11,22,6,0.001 ,0.020 ,0.001 ,0.4 ,0.027 ,0.013 ,9.2 ,83.4 ,CALM,0.2 
H02,2012,11,22,7,0.001 ,0.018 ,0.001 ,0.4 ,0.044 ,0.011 ,9.2 ,83.4 ,CALM,0.2 
H02,2012,11,22,8,0.001 ,0.027 ,0.002 ,0.6 ,0.064 ,0.009 ,10.3 ,80.5 ,CALM,0.2 
H02,2012,11,22,9,0.003 ,0.035 ,0.002 ,0.8 ,0.106 ,0.014 ,11.9 ,71.2 ,CALM,0.2 
H02,2012,11,22,10,0.004 ,0.031 ,0.004 ,0.7 ,0.076 ,0.014 ,12.8 ,67.4 ,NW,0.9 
H02,2012,11,22,11,0.003 ,0.048 ,0.003 ,0.6 ,0.082 ,0.017 ,13.5 ,64.1 ,CALM,0.2 
H02,2012,11,22,12,0.004 ,0.034 ,0.004 ,0.6 ,0.092 ,0.021 ,14.3 ,58.7 ,WNW,0.5 
H02,2012,11,22,13,0.004 ,0.032 ,0.007 ,0.6 ,0.072 ,0.019 ,15.9 ,55.6 ,NNW,0.3 
H02,2012,11,22,14,0.004 ,0.031 ,0.015 ,0.4 ,0.047 ,0.020 ,16.5 ,51.2 ,NW,1.6 
H02,2012,11,22,15,0.004 ,0.048 ,0.022 ,0.3 ,0.033 ,0.023 ,16.7 ,48.5 ,WNW,1.2 
H02,2012,11,22,16,0.004 ,0.052 ,0.019 ,0.4 ,0.020 ,0.032 ,15.9 ,50.2 ,NW,0.6 
H02,2012,11,22,17,0.004 ,0.043 ,0.005 ,0.4 ,0.030 ,0.039 ,11.8 ,77.2 ,CALM,0.0 
H02,2012,11,22,18,0.001 ,0.049 ,0.002 ,0.6 ,0.031 ,0.031 ,10.4 ,81.2 ,SSW,0.3 
H02,2012,11,22,19,0.001 ,0.036 ,0.002 ,0.6 ,0.030 ,0.024 ,9.5 ,82.5 ,SW,0.3 
H02,2012,11,22,20,0.001 ,0.031 ,0.002 ,0.6 ,0.024 ,0.022 ,8.9 ,84.1 ,CALM,0.0 
H02,2012,11,22,21,0.001 ,0.020 ,0.001 ,0.5 ,0.024 ,0.021 ,8.7 ,84.7 ,CALM,0.2 
H02,2012,11,22,22,0.001 ,0.024 ,0.001 ,0.6 ,0.024 ,0.018 ,8.1 ,86.7 ,SSW,0.6 
H02,2012,11,22,23,0.000 ,0.020 ,0.001 ,0.5 ,0.014 ,0.017 ,7.7 ,88.0 ,SW,0.3 
H02,2012,11,22,24,0.000 ,0.028 ,0.001 ,0.4 ,0.010 ,0.016 ,7.2 ,88.8 ,CALM,0.1 
H02,2012,11,23,1,0.000 ,0.027 ,0.001 ,0.4 ,0.010 ,0.014 ,8.0 ,88.0 ,E,0.3 
H02,2012,11,23,2,0.000 ,0.027 ,0.001 ,0.4 ,0.010 ,0.016 ,8.9 ,87.9 ,CALM,0.0 
H02,2012,11,23,3,0.000 ,0.024 ,0.001 ,0.4 ,0.008 ,0.015 ,9.6 ,87.6 ,NW,0.4 
H02,2012,11,23,4,0.001 ,0.025 ,0.003 ,0.3 ,0.005 ,0.015 ,10.2 ,82.5 ,CALM,0.2 
H02,2012,11,23,5,0.001 ,0.024 ,0.003 ,0.3 ,0.009 ,0.017 ,10.1 ,88.7 ,E,0.5 
H02,2012,11,23,6,0.001 ,0.025 ,0.002 ,0.3 ,0.013 ,0.015 ,10.1 ,92.6 ,CALM,0.2 
H02,2012,11,23,7,0.001 ,0.019 ,0.002 ,0.3 ,0.011 ,0.016 ,10.4 ,86.5 ,NNW,0.9 
H02,2012,11,23,8,0.001 ,0.019 ,0.007 ,0.3 ,0.010 ,0.014 ,10.8 ,87.0 ,NE,1.4 
H02,2012,11,23,9,0.001 ,0.018 ,0.010 ,0.3 ,0.023 ,0.017 ,11.4 ,87.7 ,NW,1.3 
H02,2012,11,23,10,0.001 ,0.018 ,0.015 ,0.3 ,0.015 ,0.012 ,12.3 ,86.4 ,NNW,0.8 
H02,2012,11,23,11,0.001 ,0.014 ,0.014 ,0.3 ,0.024 ,0.015 ,13.1 ,80.7 ,N,1.0 
H02,2012,11,23,12,0.001 ,0.019 ,0.022 ,0.2 ,0.011 ,0.010 ,13.5 ,73.2 ,N,0.8 
H02,2012,11,23,13,0.000 ,0.014 ,0.021 ,0.3 ,0.009 ,0.011 ,13.5 ,76.8 ,N,0.7 
H02,2012,11,23,14,0.001 ,0.012 ,0.021 ,0.3 ,0.010 ,0.012 ,14.9 ,70.6 ,NNE,2.2 
H02,2012,11,23,15,0.001 ,0.027 ,0.023 ,0.3 ,0.014 ,0.011 ,16.0 ,65.5 ,NW,2.0 
H02,2012,11,23,16,0.001 ,0.018 ,0.026 ,0.3 ,0.016 ,0.014 ,15.8 ,62.8 ,N,1.3 
H02,2012,11,23,17,0.001 ,0.024 ,0.024 ,0.3 ,0.010 ,0.013 ,14.6 ,67.8 ,WNW,1.0 
H02,2012,11,23,18,0.001 ,0.020 ,0.015 ,0.4 ,0.002 ,0.020 ,12.8 ,77.8 ,CALM,0.2 
H02,2012,11,23,19,0.001 ,0.034 ,0.005 ,0.5 ,0.004 ,0.021 ,11.6 ,83.9 ,CALM,0.2 
H02,2012,11,23,20,0.001 ,0.024 ,0.018 ,0.4 ,0.003 ,0.013 ,13.3 ,63.9 ,N,0.5 
H02,2012,11,23,21,0.002 ,0.018 ,0.027 ,0.3 ,0.001 ,0.009 ,13.1 ,63.8 ,N,0.7 
H02,2012,11,23,22,0.002 ,0.012 ,0.024 ,0.3 ,0.001 ,0.009 ,12.6 ,64.0 ,NW,0.9 
H02,2012,11,23,23,0.001 ,0.020 ,0.023 ,0.3 ,0.003 ,0.009 ,12.5 ,62.7 ,NNW,0.8 
H02,2012,11,23,24,0.001 ,0.015 ,0.023 ,0.3 ,0.001 ,0.007 ,11.6 ,69.4 ,NNW,0.3 
H02,2012,11,24,1,0.001 ,0.015 ,0.023 ,0.3 ,0.001 ,0.006 ,11.4 ,68.3 ,NNW,1.0 
H02,2012,11,24,2,0.001 ,0.011 ,0.024 ,0.3 ,0.001 ,0.005 ,10.8 ,70.0 ,NW,2.0 
H02,2012,11,24,3,0.001 ,0.014 ,0.022 ,0.3 ,0.001 ,0.006 ,11.0 ,63.5 ,NW,2.6 
H02,2012,11,24,4,0.001 ,0.015 ,0.025 ,0.3 ,0.002 ,0.005 ,11.0 ,59.8 ,NNW,1.3 
H02,2012,11,24,5,0.001 ,0.009 ,0.027 ,0.3 ,0.004 ,0.007 ,11.0 ,57.1 ,NNW,1.3 
H02,2012,11,24,6,0.001 ,0.015 ,0.029 ,0.3 ,0.005 ,0.007 ,10.9 ,52.0 ,NNE,1.3 
H02,2012,11,24,7,0.001 ,0.013 ,0.026 ,0.3 ,0.006 ,0.010 ,10.5 ,53.2 ,NNW,0.6 
H02,2012,11,24,8,0.002 ,0.025 ,0.015 ,0.4 ,0.016 ,0.023 ,11.2 ,54.2 ,NNE,0.3 
H02,2012,11,24,9,0.005 ,0.036 ,0.016 ,0.4 ,0.051 ,0.023 ,12.5 ,46.8 ,NNW,1.1 
H02,2012,11,24,10,0.004 ,0.038 ,0.017 ,0.3 ,0.060 ,0.020 ,14.1 ,35.9 ,NNW,1.5 
H02,2012,11,24,11,0.003 ,0.029 ,0.024 ,0.3 ,0.032 ,0.017 ,14.9 ,33.1 ,NW,2.6 
H02,2012,11,24,12,0.002 ,0.021 ,0.026 ,0.3 ,0.028 ,0.016 ,15.5 ,30.4 ,NW,2.8 
H02,2012,11,24,13,0.001 ,0.015 ,0.031 ,0.2 ,0.021 ,0.014 ,16.0 ,30.8 ,WNW,1.9 
H02,2012,11,24,14,0.003 ,0.025 ,0.027 ,0.3 ,0.014 ,0.019 ,16.4 ,31.8 ,WNW,1.7 
H02,2012,11,24,15,0.002 ,0.032 ,0.033 ,0.3 ,0.009 ,0.013 ,15.9 ,30.1 ,NW,2.6 
H02,2012,11,24,16,0.002 ,0.018 ,0.030 ,0.2 ,0.014 ,0.017 ,15.0 ,33.0 ,NW,2.7 
H02,2012,11,24,17,0.001 ,0.036 ,0.026 ,0.3 ,0.018 ,0.020 ,13.7 ,35.9 ,NNW,1.6 
H02,2012,11,24,18,0.001 ,0.020 ,0.026 ,0.3 ,0.007 ,0.015 ,12.0 ,41.1 ,N,1.0 
H02,2012,11,24,19,0.000 ,0.012 ,0.033 ,0.2 ,0.003 ,0.007 ,11.6 ,38.0 ,N,1.8 
H02,2012,11,24,20,0.000 ,0.008 ,0.033 ,0.2 ,0.001 ,0.006 ,10.3 ,43.9 ,NW,1.9 
H02,2012,11,24,21,0.001 ,0.011 ,0.028 ,0.2 ,0.001 ,0.009 ,9.0 ,50.3 ,NNW,0.9 
H02,2012,11,24,22,0.000 ,0.008 ,0.021 ,0.3 ,0.001 ,0.012 ,8.0 ,56.5 ,NW,1.2 
H02,2012,11,24,23,0.001 ,0.007 ,0.022 ,0.3 ,0.001 ,0.010 ,5.8 ,71.4 ,CALM,0.2 
H02,2012,11,24,24,0.000 ,0.010 ,0.016 ,0.3 ,0.001 ,0.008 ,3.7 ,77.8 ,CALM,0.2 
H02,2012,11,25,1,***,0.014 ,0.012 ,***,***,***,3.3 ,81.0 ,CALM,0.2 
H02,2012,11,25,2,0.000 ,0.003 ,0.008 ,0.2 ,0.001 ,0.008 ,2.6 ,82.7 ,CALM,0.2 
H02,2012,11,25,3,0.000 ,0.011 ,0.014 ,0.2 ,0.001 ,0.006 ,3.8 ,76.3 ,NNW,0.7 
H02,2012,11,25,4,0.001 ,0.011 ,0.014 ,0.2 ,0.001 ,0.010 ,3.4 ,77.5 ,NNW,0.5 
H02,2012,11,25,5,0.000 ,0.011 ,0.008 ,0.2 ,0.001 ,0.008 ,1.5 ,84.1 ,WSW,0.3 
H02,2012,11,25,6,0.000 ,0.011 ,0.005 ,0.2 ,0.002 ,0.009 ,1.1 ,85.9 ,CALM,0.1 
H02,2012,11,25,7,0.000 ,0.016 ,0.005 ,0.2 ,0.002 ,0.009 ,0.9 ,86.8 ,CALM,0.1 
H02,2012,11,25,8,0.000 ,0.022 ,0.006 ,0.3 ,0.009 ,0.008 ,3.5 ,80.0 ,E,0.3 
H02,2012,11,25,9,0.000 ,0.010 ,0.013 ,0.4 ,0.010 ,0.009 ,6.9 ,64.2 ,E,0.6 
H02,2012,11,25,10,0.000 ,0.012 ,0.021 ,0.3 ,0.003 ,0.006 ,9.6 ,53.1 ,NW,0.8 
H02,2012,11,25,11,0.001 ,0.014 ,0.026 ,0.2 ,0.003 ,0.005 ,11.4 ,48.1 ,NW,0.9 
H02,2012,11,25,12,0.001 ,0.016 ,0.029 ,0.2 ,0.002 ,0.004 ,13.2 ,40.9 ,WSW,0.5 